GFSMW_925_thetae_057.txt.gz
Theta_e
344 345 342 337 338 338 336 336 349 349 347 346 341 341 343 345 345 343 341 341 342 341 340 339 339 339 341 341 345 346 347 346 346 346 347 347 346 345 346 346 346 346 346
345 343 341 340 339 338 341 337 348 347 347 345 339 340 343 343 344 342 341 341 340 340 340 340 340 340 344 346 347 347 347 346 346 346 344 340 340 343 344 344 345 346 346
347 344 343 342 342 343 342 344 345 339 350 353 338 338 339 339 340 340 340 341 342 342 344 346 346 347 347 346 347 346 346 346 345 347 344 339 341 338 340 341 343 345 344
347 345 344 343 344 346 342 338 340 347 352 351 336 338 340 340 341 343 344 344 343 344 344 345 345 346 346 346 346 346 346 347 346 345 346 344 343 337 338 341 341 342 342
348 347 345 342 346 346 346 348 350 354 352 347 338 344 344 345 346 345 345 344 345 344 343 343 343 344 344 344 344 344 344 345 345 346 345 345 345 344 338 342 340 340 341
349 347 347 344 351 349 346 348 349 354 350 343 340 347 346 347 346 343 343 345 343 342 343 344 344 344 344 345 345 345 345 345 345 345 346 345 343 341 339 340 339 338 337
353 349 348 347 351 349 349 354 347 353 352 349 346 345 344 346 343 343 342 344 342 342 342 344 344 344 345 344 345 344 344 344 344 343 344 345 345 343 341 339 339 338 337
357 354 351 351 351 350 353 353 354 353 350 350 347 344 342 342 341 340 343 342 341 341 342 342 342 344 344 343 343 343 343 342 343 343 343 344 344 344 343 340 339 339 337
359 356 352 351 350 351 352 352 353 353 350 348 346 343 342 345 341 342 342 341 340 340 340 341 342 344 341 340 342 341 341 342 342 343 343 343 344 345 344 341 339 338 339
356 351 348 351 350 351 352 352 352 353 351 348 346 343 343 343 341 341 341 340 339 339 339 340 341 339 337 337 338 339 339 340 341 342 342 342 343 344 345 341 340 339 336
353 353 349 348 350 348 349 351 351 352 350 346 344 343 344 342 343 341 339 338 338 339 339 339 340 339 337 336 336 336 336 336 337 339 341 341 342 342 343 341 340 338 337
351 349 346 346 347 346 350 354 353 351 350 347 344 345 342 342 342 339 339 339 338 339 339 339 338 339 335 335 335 335 335 336 336 337 338 339 341 341 342 340 340 338 336
347 347 343 343 343 349 354 354 352 351 348 346 343 343 343 344 342 340 339 338 337 337 338 337 338 337 334 333 333 333 334 334 335 336 337 337 338 339 340 340 339 335 333
344 345 343 343 346 351 353 353 351 350 348 344 344 343 343 343 341 340 339 339 339 338 338 337 337 336 335 333 326 327 331 333 334 335 335 333 334 336 336 336 334 331 329
339 348 347 345 347 351 352 352 350 348 346 344 344 343 343 342 342 340 339 339 338 338 337 335 335 336 335 333 325 324 329 331 332 333 335 334 331 333 333 333 331 328 326
347 350 347 345 346 350 351 351 350 349 346 343 344 344 344 342 342 341 340 340 339 337 336 336 334 334 334 334 330 325 324 324 328 330 333 334 331 329 330 330 330 330 328
353 350 347 346 347 348 349 350 350 349 345 342 343 342 344 344 342 341 340 340 339 337 336 336 334 332 333 333 332 329 327 327 326 324 326 331 332 329 328 328 328 329 329
355 349 345 346 347 347 346 347 348 348 346 344 342 343 343 343 342 341 341 339 338 338 337 333 332 329 332 331 331 330 329 329 328 327 323 324 329 330 329 328 328 327 326
350 351 349 347 347 349 348 348 347 345 345 342 341 341 344 344 342 340 339 337 337 336 336 335 327 327 329 329 329 328 327 327 329 325 322 317 324 325 326 326 327 326 326
351 351 351 347 345 346 347 348 346 346 344 344 343 342 343 341 340 339 337 335 336 333 336 334 329 325 326 329 329 329 328 325 324 323 322 317 318 318 315 310 313 307 306
348 348 348 345 343 345 348 346 345 345 344 344 342 341 340 339 338 337 336 335 332 333 333 333 333 332 324 328 329 329 329 328 326 322 321 321 319 316 314 313 317 314 310
343 344 342 344 347 347 346 343 341 340 341 340 339 336 334 334 333 338 338 336 333 332 334 331 333 333 331 324 328 329 330 329 328 325 323 320 320 321 322 320 320 318 316
340 340 342 344 345 345 345 342 341 341 340 338 335 335 337 338 338 337 337 337 333 333 334 334 333 335 334 330 324 327 327 327 329 327 324 320 318 319 319 318 318 320 320
338 338 338 339 340 343 342 342 342 341 339 339 337 336 335 334 334 333 333 333 335 337 335 336 335 335 335 334 330 324 324 327 328 328 325 321 316 313 311 308 307 314 314
337 336 336 336 335 337 338 337 336 337 336 335 334 333 332 331 330 330 329 329 330 331 332 334 336 336 334 335 335 331 324 325 327 326 324 321 313 308 307 308 310 310 310
335 333 333 332 333 332 332 332 333 333 332 331 331 332 331 331 330 329 328 327 327 327 329 330 331 332 333 334 333 333 330 323 324 322 322 319 314 309 307 310 310 310 310

GFSMW_925_thetae_060.txt.gz
Theta_e
343 344 344 337 337 336 337 335 337 350 348 346 341 340 342 344 345 344 344 343 343 343 343 343 342 340 339 339 340 344 345 345 344 343 345 345 345 345 346 346 345 345 345
345 344 343 339 338 337 336 335 342 349 347 341 339 340 343 344 344 343 342 342 341 341 341 340 339 339 339 340 341 343 346 346 345 345 343 345 341 343 342 343 344 345 345
346 344 341 341 338 338 340 335 343 348 346 344 338 339 339 340 341 342 341 341 340 340 340 341 343 343 340 341 344 346 347 346 345 346 343 343 343 340 340 341 342 344 345
347 344 342 342 341 342 342 342 344 342 345 351 336 338 339 339 340 340 342 343 343 344 344 344 344 345 345 346 346 346 346 346 344 345 346 343 341 341 343 340 341 341 342
343 346 345 342 342 343 345 339 339 340 347 351 337 338 341 343 344 344 345 345 344 344 343 344 344 344 346 346 346 345 345 345 346 345 344 345 344 341 340 343 340 340 340
334 337 347 344 341 347 345 343 346 350 352 349 341 343 342 344 342 343 342 343 343 342 343 343 344 343 343 344 344 344 345 345 345 345 345 344 343 342 341 342 340 338 336
334 344 347 345 343 349 347 346 348 350 351 348 341 342 342 341 335 343 342 343 343 341 342 343 344 344 344 345 344 344 344 344 344 344 343 344 344 342 342 339 339 339 337
336 349 347 346 345 347 347 347 350 347 352 350 341 343 341 341 342 342 340 343 341 340 342 342 342 343 344 343 344 343 343 343 343 342 342 343 345 344 342 339 338 339 336
353 351 349 349 348 349 349 352 351 349 350 350 348 344 340 340 342 339 341 341 340 340 340 340 342 343 342 341 342 341 341 341 341 342 343 343 344 344 343 340 339 338 339
357 355 352 350 350 349 349 351 351 352 351 349 346 344 342 342 341 341 341 341 339 339 339 340 342 342 338 337 338 339 339 340 341 341 342 342 342 343 344 341 339 338 336
357 354 351 350 350 349 350 351 351 352 352 349 346 344 343 343 341 340 340 338 338 339 338 338 340 338 337 336 336 337 336 336 338 340 340 341 342 343 344 342 339 338 336
351 352 349 347 349 349 348 351 351 351 351 348 345 343 343 340 341 341 338 338 338 338 339 339 339 338 335 334 335 335 335 335 336 337 339 339 341 341 342 341 339 338 336
349 348 346 344 345 346 347 349 351 351 350 347 344 344 341 342 342 339 338 338 338 337 338 338 338 337 334 333 333 333 334 334 335 336 336 336 338 339 339 339 339 337 335
345 345 344 342 343 345 348 351 352 351 349 346 344 343 343 342 342 340 339 338 338 337 337 337 337 336 334 332 326 327 332 333 334 335 333 332 335 337 338 338 336 334 333
334 340 344 342 343 347 350 352 352 350 348 345 344 343 343 342 341 340 339 339 338 338 337 336 336 336 335 333 324 329 331 332 333 335 334 331 333 333 333 335 332 332 331
335 339 345 344 344 347 350 352 350 347 346 344 344 343 343 342 342 341 339 339 338 338 337 336 335 335 334 334 326 323 326 328 330 332 333 331 329 330 330 331 330 328 329
337 345 348 345 344 348 351 351 349 348 346 344 343 342 344 343 341 341 340 339 339 338 337 335 334 334 333 334 330 326 325 324 324 326 331 331 328 328 329 328 328 328 328
340 348 346 345 346 350 351 350 349 348 347 343 341 342 342 343 343 342 340 339 339 337 337 336 335 331 332 333 332 330 327 327 327 326 323 327 329 328 327 327 328 328 328
338 348 347 346 347 347 347 346 347 348 346 344 343 341 341 342 342 342 340 339 339 336 337 337 336 332 328 331 331 331 329 329 328 327 324 321 327 328 328 327 326 326 326
341 349 348 346 346 346 347 346 346 345 344 344 342 341 341 342 341 339 338 338 337 337 335 333 334 335 327 326 329 329 328 326 327 326 323 317 322 325 325 325 326 325 325
346 349 348 346 347 347 347 346 344 343 344 343 342 341 341 340 339 337 337 336 334 334 334 334 333 333 332 326 327 328 328 327 325 324 322 320 316 317 313 310 313 309 311
341 343 342 341 342 344 346 343 342 341 342 341 339 338 337 336 334 335 336 336 334 333 333 332 332 332 332 333 326 329 328 328 327 326 325 321 320 316 312 311 315 314 309
339 340 341 343 344 343 344 341 339 339 338 336 334 334 335 335 336 335 335 334 333 332 334 333 332 332 334 334 333 325 327 328 328 328 328 324 320 320 320 320 316 316 314
338 336 340 339 339 341 341 341 340 339 338 337 336 336 335 335 334 333 332 333 334 334 333 333 333 332 332 334 334 330 325 325 326 327 328 325 321 318 318 317 318 318 319
339 337 338 340 340 341 341 341 340 339 338 336 335 334 333 333 331 330 329 328 328 328 330 332 332 334 334 334 334 334 332 325 325 325 325 324 319 315 313 312 310 307 316
337 336 336 336 336 337 337 336 335 335 334 333 332 332 331 331 330 329 328 327 326 326 325 326 328 330 330 332 332 333 334 333 328 324 324 322 321 316 313 309 308 308 309

GFSMW_925_thetae_063.txt.gz
Theta_e
349 348 345 342 339 339 340 337 336 342 348 347 346 341 343 342 345 344 344 343 343 343 342 343 343 343 342 344 345 345 345 346 345 343 346 347 347 348 348 346 346 349 349
350 348 347 344 341 341 340 336 336 347 348 347 340 341 343 342 344 343 343 342 342 343 344 343 342 342 344 344 344 345 347 347 344 343 344 350 346 346 345 344 344 348 349
353 352 348 346 342 342 340 338 335 348 347 347 339 340 340 342 343 343 342 342 342 341 341 342 343 344 343 343 344 345 346 347 344 343 346 351 347 346 344 342 342 343 345
353 351 347 347 344 343 343 345 336 347 347 348 341 341 342 342 342 344 344 341 340 341 342 343 343 345 345 345 344 345 348 347 345 347 348 346 345 347 347 343 341 341 342
353 349 346 348 345 345 345 344 344 344 342 348 349 339 342 344 341 345 347 345 344 343 340 335 342 344 345 345 344 345 344 344 345 346 346 347 344 344 345 345 342 340 340
353 351 348 347 346 346 347 346 343 342 341 349 348 337 347 344 345 344 345 346 346 345 342 341 343 343 343 344 345 345 347 348 347 347 347 346 346 346 346 346 343 340 336
341 343 351 349 347 346 351 347 347 349 353 350 348 341 345 342 337 345 344 345 346 345 344 344 343 344 344 344 344 345 346 347 347 347 347 346 346 346 346 346 342 340 336
338 346 352 351 349 345 351 349 348 350 353 352 348 341 341 341 341 345 344 344 345 344 342 344 344 344 344 344 344 345 346 346 346 345 345 345 344 346 345 344 343 341 336
341 342 350 351 350 349 350 349 350 351 350 353 350 344 345 343 345 343 341 345 342 342 342 342 344 344 343 341 342 342 341 342 343 345 344 345 345 346 346 344 343 340 342
343 344 353 352 351 351 351 351 354 353 352 352 350 349 347 342 340 341 342 344 342 341 341 343 344 343 340 340 339 340 340 340 342 342 343 343 342 344 344 344 343 341 338
346 354 357 354 353 352 351 353 354 354 354 352 350 349 347 346 342 341 342 342 340 340 340 341 342 340 339 336 337 339 338 339 339 340 341 342 341 342 343 344 344 338 336
357 360 358 356 354 352 351 353 354 354 354 352 350 348 347 345 344 343 342 338 340 338 340 341 341 340 338 336 337 337 337 337 338 339 341 342 342 342 342 342 341 338 336
349 360 359 356 354 353 352 352 353 353 353 351 348 347 345 344 344 344 341 340 340 340 340 340 340 339 336 335 335 335 335 336 336 338 339 339 341 340 340 343 339 337 336
346 351 359 357 353 353 352 351 352 353 352 350 348 347 345 344 344 343 341 341 340 340 340 339 340 338 336 335 330 330 334 335 335 336 335 336 338 339 338 339 337 335 333
345 348 356 357 352 351 351 351 353 353 351 349 348 347 346 345 344 343 342 341 339 340 338 337 339 338 336 334 329 331 333 334 335 335 335 334 334 334 336 336 335 334 332
342 341 350 352 351 349 351 353 354 353 350 349 348 347 346 345 344 343 342 341 339 338 337 336 336 338 336 334 330 327 331 332 334 335 333 331 330 331 331 332 332 332 331
341 340 341 350 351 350 351 353 353 351 349 348 347 346 346 345 345 344 343 342 341 338 337 336 335 334 336 334 331 326 328 328 328 332 333 330 328 330 330 330 328 328 329
339 340 342 347 351 351 351 353 353 350 349 347 346 346 346 346 346 345 344 343 342 341 340 336 335 334 332 332 332 329 328 329 329 326 327 331 330 329 330 330 330 330 329
338 342 350 352 351 350 352 353 352 350 349 347 345 345 345 345 346 344 344 343 340 339 338 337 336 335 332 329 332 330 331 329 330 328 324 326 329 328 327 329 329 329 327
340 346 352 351 351 352 352 351 351 350 349 348 346 345 344 345 341 342 343 339 340 338 337 335 335 335 335 333 328 331 332 331 330 328 325 321 325 326 326 328 328 329 327
348 347 350 350 350 349 349 349 349 349 347 345 344 344 344 344 343 340 338 338 338 337 337 335 334 333 332 332 328 328 330 329 328 328 326 323 319 323 323 322 324 326 324
344 345 343 341 341 343 346 348 348 344 344 343 342 342 340 339 339 339 337 336 337 337 336 335 333 332 332 332 332 326 328 327 326 326 325 324 321 317 316 310 312 309 312
344 344 340 334 333 334 336 339 337 338 338 339 337 335 334 334 338 334 334 335 335 335 335 333 335 335 332 332 332 329 327 328 328 326 327 327 323 320 313 310 311 316 310
343 338 333 330 329 329 333 339 340 340 336 335 336 336 337 336 336 334 335 335 333 334 335 334 334 333 334 334 333 332 330 328 327 328 327 326 325 320 319 319 317 314 316
342 337 335 334 333 334 339 340 339 338 338 336 337 337 336 335 334 332 330 329 328 328 330 331 331 332 333 334 333 333 333 333 331 326 326 324 322 320 317 316 316 318 320
341 337 334 336 337 336 336 339 339 338 338 338 337 335 334 333 332 331 330 327 327 326 325 324 324 325 327 329 330 330 330 330 331 325 323 322 322 322 319 316 316 315 313

GFSMW_925_thetae_069.txt.gz
Theta_e
358 359 359 356 353 351 351 354 350 350 351 352 351 349 346 349 349 349 350 351 349 347 346 343 348 349 345 347 351 352 351 348 346 346 346 346 347 345 347 349 351 352 353
358 359 358 353 352 351 351 352 351 351 354 352 348 347 349 348 350 351 350 349 350 350 350 349 344 346 344 343 346 345 346 346 346 348 350 347 347 345 349 349 350 351 351
358 361 360 355 353 352 351 351 351 354 354 351 348 349 350 349 349 351 350 349 349 349 348 346 343 341 343 343 344 348 349 349 348 351 348 349 352 345 347 350 349 348 348
356 360 360 358 354 353 352 350 350 354 354 353 345 350 350 349 350 349 349 348 347 348 349 349 344 343 342 346 343 344 349 349 349 351 348 346 343 346 348 348 348 347 348
356 359 360 359 356 353 352 350 350 351 354 353 348 348 350 349 346 346 350 350 348 347 343 341 341 342 344 349 349 350 348 349 349 350 346 343 343 342 347 348 348 345 343
356 358 359 359 356 353 353 352 351 351 354 354 352 351 351 349 347 347 348 348 348 347 344 339 332 336 336 341 344 345 346 347 346 344 344 342 349 349 348 352 349 346 338
356 359 362 356 355 354 354 354 353 353 353 352 353 352 349 349 346 345 346 348 346 347 347 347 347 340 341 341 345 347 347 345 347 346 346 347 347 348 348 348 349 345 338
356 358 359 355 352 355 355 355 354 354 353 352 353 353 351 349 345 347 348 343 341 345 349 348 348 349 347 341 344 347 349 349 349 349 349 349 347 347 350 349 349 344 339
355 357 347 352 356 355 356 356 355 355 355 354 355 354 352 350 348 348 350 345 344 344 345 345 345 347 348 348 344 342 341 344 344 344 345 346 346 347 347 350 346 345 344
346 345 346 351 355 354 355 355 354 355 355 355 355 355 352 351 350 350 348 346 346 346 344 343 343 346 346 345 346 346 345 345 347 346 347 348 347 345 346 348 347 344 345
349 350 347 354 355 353 353 352 354 355 356 355 356 354 352 351 350 349 347 346 347 346 345 344 346 345 345 344 344 344 344 343 345 345 345 346 347 347 346 350 346 345 345
352 346 344 353 352 352 351 352 355 356 356 356 356 355 353 351 349 349 347 347 346 345 345 343 343 343 343 342 343 341 340 341 342 343 343 344 345 347 348 349 347 345 344
347 349 352 354 353 352 350 353 356 355 355 357 356 352 353 351 349 348 346 346 345 345 344 343 343 342 342 341 341 341 341 341 341 341 343 343 344 345 347 348 349 345 343
350 356 358 357 354 352 351 353 354 354 353 357 356 351 351 350 349 347 346 345 345 345 345 344 343 342 342 340 339 337 337 340 340 341 341 341 342 344 345 346 346 345 342
353 359 360 360 358 355 354 353 353 354 352 355 354 351 351 350 349 347 346 345 345 344 344 344 343 343 341 340 340 338 337 339 339 340 340 340 337 338 341 342 345 342 339
354 353 355 361 361 359 356 355 354 355 354 355 354 351 351 350 349 348 347 346 345 345 344 344 343 342 341 336 335 332 337 338 339 339 338 339 334 333 335 339 341 341 339
348 352 353 352 356 361 359 356 355 357 356 356 354 351 352 350 349 348 346 347 347 347 346 345 344 343 340 337 336 331 334 336 336 337 338 336 334 335 336 333 337 339 339
356 350 348 350 349 354 359 358 357 359 358 357 354 352 351 350 350 348 348 349 349 349 347 347 345 344 341 336 334 332 330 334 335 334 336 337 337 336 336 336 336 336 335
356 355 346 346 348 347 354 358 359 359 359 357 354 352 351 350 349 349 349 350 350 348 346 345 345 344 340 335 335 333 330 334 335 335 334 333 335 334 332 336 336 335 335
351 354 352 350 347 345 354 359 359 357 358 357 353 351 350 349 349 349 349 351 349 346 344 344 343 342 340 336 333 333 331 333 335 334 334 331 331 333 325 333 334 334 334
347 349 356 353 358 354 358 357 357 358 358 354 352 351 350 350 349 351 351 348 346 344 344 343 342 341 340 337 333 331 331 333 334 334 334 333 327 326 324 326 334 333 333
342 347 349 353 358 356 355 357 358 356 355 353 352 352 351 350 350 350 349 346 345 344 343 342 342 339 340 335 334 334 332 332 333 334 333 332 330 326 322 324 326 328 329
340 343 347 348 351 354 354 354 355 354 354 353 352 352 350 349 348 348 345 343 342 342 342 341 340 340 338 338 334 333 333 331 329 331 330 330 329 327 322 320 322 319 319
338 339 343 348 350 351 352 349 349 350 350 348 347 346 346 346 345 344 343 342 341 340 340 340 341 342 340 339 337 333 332 331 331 329 329 329 328 327 325 322 318 316 316
338 339 340 345 347 349 347 347 345 344 344 344 343 343 343 342 342 342 341 341 341 338 338 337 337 335 335 336 335 335 334 334 333 333 333 332 332 330 329 327 323 318 317
333 336 339 343 345 344 344 343 343 343 342 340 340 340 340 341 342 342 338 334 332 331 330 326 326 328 327 325 326 328 329 330 330 330 329 329 330 332 332 332 330 328 325

GFSMW_925_thetae_072.txt.gz
Theta_e
358 358 360 361 359 355 357 355 353 352 350 352 353 353 352 351 351 350 348 347 347 350 346 343 345 342 338 337 344 348 347 348 349 346 346 348 349 347 347 345 350 348 348
361 362 361 359 355 354 355 356 354 353 351 353 351 349 348 348 349 351 350 350 347 347 348 347 343 347 349 345 343 346 350 349 346 346 347 351 346 347 345 348 349 348 349
364 366 363 357 355 354 356 355 353 353 354 355 350 347 347 349 351 351 352 349 349 347 347 348 349 346 347 343 341 342 343 343 343 347 346 350 349 348 344 345 348 348 346
364 367 365 358 356 356 354 355 354 353 355 354 349 349 351 349 348 349 349 349 348 348 346 347 346 344 341 342 342 342 343 344 346 346 346 347 343 348 346 343 338 347 347
359 366 366 360 356 355 354 353 353 355 356 354 350 349 349 348 346 347 348 350 349 348 348 346 347 344 343 344 345 346 346 345 346 347 347 348 347 342 344 345 343 344 343
358 364 363 362 359 355 355 353 353 352 356 355 350 351 351 350 348 348 346 348 349 348 345 342 341 342 342 342 340 341 343 345 347 346 347 344 344 345 344 346 347 346 340
358 363 366 365 362 355 355 354 354 353 356 355 353 352 351 351 349 346 343 346 344 348 346 340 335 332 334 336 339 342 342 343 343 343 343 343 342 339 344 346 347 345 338
358 362 364 362 358 356 356 355 357 356 355 355 353 354 352 350 350 344 347 347 347 343 345 346 346 346 346 342 341 346 345 346 346 348 348 347 347 346 346 346 347 345 339
357 360 363 359 356 356 356 356 357 357 355 354 354 355 353 351 349 349 346 348 345 346 346 345 345 344 349 346 341 338 341 338 342 343 343 343 343 343 344 345 346 343 342
355 358 356 352 354 356 357 357 357 357 356 355 355 356 354 352 350 351 349 348 346 347 346 344 344 345 348 343 343 345 342 341 340 340 344 346 346 347 345 346 346 346 343
353 353 348 352 355 354 356 356 357 358 358 357 354 355 353 352 351 350 349 347 347 347 345 344 345 346 345 344 343 342 342 343 343 343 344 344 345 345 346 344 344 345 344
349 349 350 352 354 353 354 355 356 358 358 356 355 354 352 352 352 348 349 347 347 346 346 345 343 344 340 342 342 341 341 342 342 341 342 341 344 345 344 345 345 345 344
354 351 348 357 355 354 355 355 356 358 358 356 355 354 352 352 351 348 347 348 346 346 345 344 344 343 343 341 341 341 341 341 341 341 340 343 343 344 344 345 346 344 344
354 353 359 362 358 357 355 354 356 356 356 356 356 355 352 352 350 348 347 347 346 346 344 344 343 342 342 342 341 339 337 339 341 339 339 341 342 343 345 345 345 343 341
353 362 365 367 362 359 356 354 356 355 357 359 356 356 352 350 350 349 348 345 345 345 344 344 343 342 342 341 340 339 338 338 340 340 339 341 339 334 341 343 343 342 339
354 358 365 366 365 360 357 356 356 355 360 359 354 355 354 350 349 348 347 345 345 345 345 344 343 343 342 339 337 336 334 338 338 338 339 339 336 332 335 340 343 340 339
351 354 355 361 366 364 359 359 357 357 357 358 355 355 353 353 349 348 347 347 346 346 347 345 346 344 344 341 337 335 330 335 336 337 338 337 338 336 336 335 339 340 339
357 356 351 353 355 358 363 361 359 358 359 359 356 355 355 352 348 348 348 346 347 349 347 346 346 344 343 341 336 333 331 332 334 334 335 336 336 337 338 337 336 335 336
354 357 355 349 349 352 352 362 361 359 361 360 357 355 355 352 350 351 350 348 349 349 346 345 343 346 343 339 336 335 333 331 332 334 335 334 336 335 332 336 336 334 334
349 351 355 354 353 357 350 349 364 362 361 359 356 355 355 354 353 351 350 350 348 347 346 346 344 343 341 339 335 335 333 331 332 334 335 334 332 333 329 329 335 336 335
343 347 348 354 357 359 362 359 358 361 360 357 356 353 353 353 351 349 350 349 349 347 346 345 344 343 342 339 335 333 333 331 333 334 333 334 333 327 328 324 332 333 332
342 343 346 349 350 353 356 357 355 354 356 354 354 352 352 352 350 349 349 350 347 347 345 344 343 341 341 338 335 333 332 331 333 334 333 331 333 328 325 323 323 328 329
340 340 341 343 347 351 353 356 352 346 343 342 334 345 351 349 350 349 348 348 346 345 345 343 341 342 342 340 336 333 333 333 333 331 332 331 331 329 327 325 322 323 322
339 339 341 345 346 348 351 350 347 341 339 331 328 343 347 349 348 347 346 344 344 343 342 341 341 341 342 341 337 334 333 332 331 331 331 330 329 329 328 326 324 321 320
332 331 333 336 341 343 348 347 346 345 331 336 338 338 345 345 345 344 343 343 341 342 341 340 337 336 335 338 337 336 335 334 333 332 333 333 330 330 330 328 327 325 321
329 329 328 328 330 336 338 340 344 344 343 343 338 342 343 342 342 342 338 335 336 334 334 334 331 328 327 325 325 326 327 329 330 330 330 331 331 331 331 332 331 330 326

GFSMW_925_thetae_075.txt.gz
Theta_e
358 359 361 361 358 356 355 351 352 353 353 351 351 351 350 349 348 348 348 348 347 347 345 342 345 346 343 344 347 347 347 349 349 348 347 346 347 345 345 346 346 346 347
360 360 361 361 359 357 355 353 352 352 352 348 350 352 353 351 351 351 349 349 348 347 347 345 345 342 340 339 338 340 347 347 346 345 345 343 343 345 346 345 346 347 348
362 361 361 357 355 357 356 354 354 352 347 351 351 350 346 348 348 347 349 349 348 348 346 344 345 343 343 344 343 341 342 342 342 345 344 342 341 342 345 344 345 346 346
361 361 359 355 354 353 356 355 354 352 350 354 354 347 342 346 347 349 349 348 347 347 346 346 344 345 345 345 342 341 341 343 344 343 344 344 343 339 340 342 336 343 342
363 361 357 355 356 354 355 354 353 352 350 355 349 347 349 346 346 348 348 350 348 347 346 346 345 345 346 344 342 342 342 344 344 342 343 343 346 343 340 339 339 342 342
364 360 356 356 356 355 355 355 353 352 355 354 353 351 349 348 347 347 346 348 348 346 347 344 344 344 343 342 343 343 342 344 346 346 346 346 344 342 341 342 341 341 340
365 362 359 356 357 355 354 353 353 352 356 355 350 351 350 350 349 347 343 349 346 344 343 342 341 338 334 338 337 340 342 342 338 340 344 345 344 343 342 342 343 341 338
364 364 361 359 358 356 354 354 353 351 351 356 354 350 351 350 349 346 344 348 346 344 345 345 340 342 334 333 338 339 338 339 343 343 344 343 342 343 342 342 344 342 338
362 363 362 361 358 356 355 355 353 352 352 356 353 354 352 349 350 346 346 348 346 344 344 343 344 344 345 347 341 340 342 341 340 340 342 343 342 344 344 344 343 343 341
363 362 360 359 356 356 356 357 355 355 353 355 353 354 353 350 350 348 346 347 347 347 346 346 345 344 342 345 344 343 340 338 334 334 333 333 343 343 345 345 344 344 340
357 362 358 356 356 356 356 357 356 356 354 354 353 354 353 351 350 350 348 349 347 345 345 343 344 345 342 342 341 341 342 343 342 342 344 344 344 344 343 344 344 345 344
355 354 351 353 356 356 356 358 357 357 355 354 356 355 353 352 351 350 351 346 347 347 344 344 342 343 343 342 343 341 342 342 342 342 342 342 343 343 343 343 344 344 344
346 345 351 353 354 354 356 358 357 357 357 356 357 354 352 351 352 350 349 346 347 345 345 344 344 341 341 342 342 339 341 339 341 341 341 339 342 344 343 344 343 343 344
348 346 349 352 352 352 356 357 358 357 356 355 356 354 352 351 351 349 349 346 346 346 345 344 343 341 340 341 341 340 338 338 340 340 337 338 341 341 342 342 344 343 339
350 355 356 355 358 356 355 356 356 358 357 356 356 354 352 352 351 348 349 347 345 346 344 343 342 341 340 342 341 339 337 337 338 339 338 339 339 333 335 340 343 341 338
356 360 362 359 358 356 355 356 355 356 357 357 355 356 354 351 351 349 348 347 345 345 345 344 343 342 341 341 339 339 337 338 338 338 339 339 337 332 335 340 342 342 339
359 355 352 353 360 357 355 355 356 355 358 357 356 356 355 352 350 350 349 347 344 344 345 344 343 343 343 341 338 336 333 336 336 337 337 337 339 337 333 337 340 341 339
356 355 354 355 353 352 360 354 355 355 360 359 357 356 355 352 349 349 347 346 345 345 344 345 345 344 344 343 339 335 331 332 335 334 335 336 335 338 337 334 334 335 336
352 351 350 352 358 358 361 361 360 358 359 360 357 356 353 354 351 349 347 346 347 346 347 346 345 344 344 341 340 335 333 331 332 333 334 335 336 334 333 336 335 334 334
345 348 347 347 349 350 353 356 358 360 361 360 359 356 354 353 351 348 348 347 346 347 346 345 344 343 344 341 337 335 334 330 332 334 334 335 332 334 330 331 335 335 334
340 340 340 348 346 346 351 356 355 352 352 356 355 342 335 331 340 348 348 348 348 347 345 345 344 342 341 339 338 334 334 331 333 334 334 334 333 329 328 325 332 333 332
338 337 338 341 345 348 350 353 354 349 346 342 340 331 330 333 331 330 336 346 346 345 345 345 343 342 341 339 335 333 333 331 333 333 333 332 333 332 326 325 323 329 330
330 330 332 335 337 341 341 350 348 346 343 338 330 327 330 331 330 330 329 344 345 344 345 343 341 342 342 339 334 333 332 331 332 332 332 331 331 329 328 327 324 322 323
329 328 330 329 330 334 335 348 346 344 340 333 329 329 329 331 331 329 329 343 343 343 342 341 342 342 341 339 334 333 332 332 332 332 331 331 330 330 329 328 327 326 323
328 327 326 326 327 326 326 333 338 344 334 331 327 330 329 337 340 342 343 342 341 341 341 342 341 341 340 337 336 334 332 332 331 331 332 333 329 329 329 329 328 328 327
327 326 325 325 325 325 325 325 330 336 340 337 332 334 330 337 342 339 339 339 339 339 340 337 336 337 339 336 333 333 333 333 333 332 331 331 331 331 331 330 330 330 330